Погода в Кудусе

Индонезия     6°47′53″S   110°49′53″E
темп.,
°C
ветер,
м/с
пор.,
м/с
влажн.,
%
обл.,
%
осадки,
мм/ч
давл.,
гПа
погр.,
м
2 марта, вт
вт201:00+25с128986 1.0 101027
04:00+24сз129399 6.3 100933
07:00+24зюз249596 10.2 1010209
10:00+25сз3588100 0.1 1011318
13:00+28зсз467590 0.1 1009682
16:00+28сз4679100 0.1 1008721
19:00+25зсз3790100 2.7 1010161
22:00+25з2590100 0.1 1011136
3 марта, ср
ср301:00+25зсз238997 0.1 101047
04:00+25зсз129087 0.1 100931
07:00+26з118776 0.1 1010145
10:00+30зсз45711 0.0 1011928
13:00+30зсз67711 0.0 10091013
16:00+28сз577534 0.1 1008904
19:00+25ссз358634 0.1 1010124
22:00+25ссз3586100 0.1 1012118
4 марта, чт
чт401:00+25ссз358890 1.1 1011107
04:00+25зсз259063 1.9 1010138
07:00+26зсз368775 4.3 1012357
10:00+28зсз467797 0.1 1012701
13:00+29зсз466898 0.1 1010862
16:00+28сз4676100 0.0 1008695
19:00+25сз2285100 0.6 101140
22:00+25с1184100 0.0 101226
5 марта, пт
пт501:00+25юз1186100 0.0 101026
04:00+24юв0187100 0.0 101024
07:00+26вюв118299 0.1 1011109
10:00+30ююз116752 0.0 1011840
13:00+31ю225849 0.3 10081424
16:00+31сз136163 0.8 10071229
19:00+27в128182 1.6 101037
22:00+25всв2283100 0.4 101127
6 марта, сб
сб601:00+25с118497 0.4 100927
04:00+24сз118947 1.4 100927
07:00+26ссз018466 1.8 101195
10:00+28зсз447698 3.6 1011601
13:00+28сз578099 8.6 1008652
16:00+27сз3584100 3.4 1008414
19:00+25ссз2288100 3.8 101036
22:00+25сз1288100 0.0 101127